This is the latest recevied weather packets stored in our database for station/object KO6LQK. If no packets are shown the sender has not sent any weather packets the latest 10 day(s).
| Time | Temp. | Humidity | Pressure | Rain* | Wind** | Luminosity | Snow |
|---|---|---|---|---|---|---|---|
| 1788189756 | 24.44° C | 36% | 1020.8 hPa | 0 mm | - | 212 W/m² | - |
| 1788189456 | 23.89° C | 35% | 1020.9 hPa | 0 mm | - | 188 W/m² | - |
| 1788189156 | 23.89° C | 34% | 1020.7 hPa | 0 mm | - | 152 W/m² | - |
| 1788188850 | 23.33° C | 35% | 1020.7 hPa | 0 mm | - | 131 W/m² | - |
| 1788188546 | 22.78° C | 43% | 1020.6 hPa | 0 mm | - | 113 W/m² | - |
| 1788188245 | 22.22° C | 45% | 1020.8 hPa | 0 mm | - | 106 W/m² | - |
| 1788187942 | 22.22° C | 45% | 1020.7 hPa | 0 mm | - | 97 W/m² | - |
| 1788187636 | 21.67° C | 46% | 1020.9 hPa | 0 mm | - | 89 W/m² | - |
| 1788187333 | 21.67° C | 46% | 1020.7 hPa | 0 mm | - | 84 W/m² | - |
| 1788187032 | 21.11° C | 48% | 1020.7 hPa | 0 mm | - | 77 W/m² | - |
| 1788186728 | 21.11° C | 49% | 1020.7 hPa | 0 mm | - | 73 W/m² | - |
| 1788186424 | 20.56° C | 51% | 1020.4 hPa | 0 mm | - | 66 W/m² | - |
| 1788186119 | 20.56° C | 51% | 1020.6 hPa | 0 mm | - | 61 W/m² | - |
| 1788185818 | 20.56° C | 52% | 1020.5 hPa | 0 mm | - | 54 W/m² | - |
| 1788185513 | 20° C | 53% | 1020.5 hPa | 0 mm | - | 49 W/m² | - |
| 1788185212 | 20° C | 53% | 1020.4 hPa | 0 mm | - | 43 W/m² | - |
| 1788184907 | 20° C | 53% | 1020.4 hPa | 0 mm | - | 38 W/m² | - |
| 1788184605 | 20° C | 53% | 1020.4 hPa | 0 mm | - | 31 W/m² | - |
| 1788184301 | 20° C | 53% | 1020.3 hPa | 0 mm | - | 27 W/m² | - |
| 1788184007 | 19.44° C | 53% | 1020.3 hPa | 0 mm | - | 21 W/m² | - |
| 1788183692 | 19.44° C | 54% | 1020.3 hPa | 0 mm | - | 17 W/m² | - |
| 1788183391 | 18.89° C | 57% | 1019.9 hPa | 0 mm | - | 6 W/m² | - |
| 1788183086 | 18.89° C | 57% | 1019.9 hPa | 0 mm | - | 6 W/m² | - |
| 1788182782 | 18.89° C | 58% | 1020.2 hPa | 0 mm | - | 5 W/m² | - |
| 1788182481 | 18.89° C | 59% | 1020.2 hPa | 0 mm | - | 3 W/m² | - |
* Rain latest hour (hover to see other rain measurements)
** Current wind speed in m/s (hover to see current wind gust speed)